Theta_e
301 300 299 298 298 297 296 296 295 295 294 294 293 293 292 292 291 292 291 291 290 290 289 289 289 290 290 290 291 291 290 291 292 291 291 290 290 290 289 290 290 290 290
300 298 298 297 296 296 295 295 295 295 293 293 293 293 292 292 291 291 291 290 290 290 289 288 289 290 290 290 290 290 290 289 290 290 290 290 290 290 290 290 289 291 291
298 297 297 296 295 295 295 295 295 294 293 293 293 293 292 292 291 291 290 290 290 289 289 289 289 289 289 289 289 289 289 289 289 289 289 290 290 291 291 290 289 290 291
297 296 296 296 295 295 295 295 295 293 293 293 293 293 292 292 291 290 290 289 289 289 289 288 288 288 288 288 288 288 288 288 289 289 289 289 290 291 289 288 287 289 290
296 296 296 295 295 295 294 294 294 293 292 293 292 292 291 291 291 290 289 290 289 288 288 288 288 288 287 287 287 287 287 288 289 290 290 290 290 289 287 286 286 287 291
295 295 295 294 294 294 294 293 292 292 291 292 291 291 291 291 290 289 288 289 288 287 287 287 287 287 286 286 286 286 287 288 288 288 288 288 288 286 285 284 285 287 289
294 294 294 294 293 293 293 292 292 291 291 291 291 290 290 289 288 287 286 288 287 287 286 286 286 286 286 286 286 286 287 286 286 285 286 286 285 284 283 283 284 284 286
293 293 293 293 292 292 292 292 291 291 291 291 290 290 289 287 285 284 284 286 286 286 285 285 285 285 285 284 285 285 285 286 286 285 284 283 282 282 281 281 283 284 288
292 292 292 292 292 291 291 291 291 291 290 290 290 290 288 286 284 283 283 284 285 285 284 284 285 284 284 284 284 284 285 285 286 285 284 284 283 283 281 282 283 284 290
292 292 293 292 292 291 292 290 290 290 290 290 289 290 288 286 285 283 282 284 285 284 283 283 284 284 284 284 284 284 284 285 285 285 284 284 284 283 282 281 280 282 286
293 293 292 292 292 293 291 290 290 289 289 289 289 289 288 286 285 283 282 283 284 284 283 283 283 283 284 285 284 284 284 285 285 285 285 284 284 283 283 282 282 280 282
293 292 292 291 291 291 291 290 289 288 288 288 288 288 288 287 285 284 283 283 284 284 283 283 282 283 282 284 285 285 285 285 285 285 285 282 280 283 283 282 282 281 281
292 292 291 291 291 290 290 289 287 287 287 287 287 287 287 287 286 285 284 283 283 283 283 282 282 282 282 282 283 284 285 284 284 284 282 280 280 281 281 282 281 281 280
292 291 291 290 289 289 289 288 288 287 287 287 286 286 286 286 286 286 284 283 283 283 283 282 281 280 280 281 281 282 283 283 283 282 282 280 281 282 280 281 281 281 282
290 289 289 289 288 288 288 288 288 288 289 289 289 288 287 286 287 288 287 285 284 284 284 283 281 279 280 280 281 281 281 281 281 281 282 280 279 281 282 282 281 281 281
287 287 287 287 287 287 287 287 287 288 289 289 289 290 289 289 289 289 288 287 286 284 284 282 281 280 280 280 281 281 280 281 281 281 281 279 278 281 281 281 281 281 279
287 286 286 286 286 286 286 287 286 286 286 287 287 288 288 289 288 288 288 287 285 284 283 283 282 282 283 282 281 280 281 280 280 280 280 278 277 279 281 280 280 279 278
285 286 286 286 286 286 286 287 287 286 286 286 286 288 288 286 286 287 287 286 285 284 283 284 283 284 284 283 282 280 279 279 279 279 278 277 276 277 278 279 280 279 278
282 284 285 286 286 286 286 286 287 287 288 288 286 286 286 286 286 286 286 286 286 285 284 283 284 284 284 283 282 280 279 278 278 277 276 276 275 275 276 276 277 278 277
281 281 283 284 284 284 284 284 284 285 285 285 285 285 284 284 286 286 287 286 286 286 286 285 284 284 284 283 282 280 278 277 277 276 275 275 275 274 275 274 275 275 275
281 281 282 283 283 283 283 283 283 284 284 283 282 281 281 282 284 285 287 287 286 286 286 285 284 284 283 282 281 279 278 277 276 275 275 275 275 274 274 274 274 274 274
279 278 279 278 279 278 278 279 278 278 278 277 277 277 279 281 281 282 282 283 285 286 286 285 284 283 283 282 281 279 278 277 277 276 276 276 276 275 275 274 273 273 273
275 275 274 274 273 273 273 273 273 273 273 273 273 273 273 274 274 275 276 278 279 280 281 282 282 282 282 281 279 279 279 280 279 278 278 277 277 276 276 275 274 273 273
272 272 271 271 271 271 271 271 270 270 270 270 270 270 270 270 271 271 272 273 275 276 277 278 279 279 278 278 278 278 278 278 278 277 277 277 276 275 275 275 275 274 274
270 269 269 269 269 269 269 268 268 268 268 268 268 268 269 269 269 270 270 271 272 273 273 274 275 275 276 276 276 276 276 276 276 276 276 276 275 275 274 274 273 273 273
268 267 267 267 267 267 267 266 266 266 266 266 267 267 267 268 268 269 269 270 270 271 271 271 272 272 273 273 273 274 275 274 275 275 274 274 274 273 273 272 272 272 271
Wind_Speed
27 27 30 31 29 27 27 24 22 20 18 16 14 12 10 9 8 7 6 6 5 3 2 2 3 3 4 5 6 7 9 11 11 20 19 26 27 26 27 28 26 26 26
26 26 30 32 31 29 27 25 23 21 19 18 16 14 12 10 9 8 7 6 6 5 3 2 2 2 4 5 6 8 10 12 15 19 21 21 22 23 24 27 26 23 23
24 27 29 31 32 30 29 27 25 24 22 20 18 16 15 14 11 8 7 7 5 5 5 4 4 3 4 4 5 8 10 12 15 17 19 19 20 23 24 21 24 23 21
25 27 31 35 35 33 31 28 26 25 24 22 19 17 16 14 12 11 8 6 7 5 4 3 3 3 3 3 5 7 10 13 16 16 16 18 18 19 18 18 24 25 24
26 29 34 36 34 33 31 29 28 26 25 21 19 18 16 15 13 11 8 6 5 5 4 3 3 4 3 3 5 8 9 11 15 13 13 14 13 17 16 19 17 22 17
31 33 36 36 34 34 33 32 29 27 25 23 22 20 19 17 15 13 9 7 6 6 5 4 4 4 3 4 6 7 7 9 10 9 10 12 13 15 16 18 16 12 5
30 32 35 38 37 36 35 33 31 30 27 25 24 22 21 18 16 14 12 10 8 7 6 5 4 4 4 4 6 7 5 7 9 9 11 11 14 16 18 18 15 13 7
29 30 35 36 35 36 35 34 33 32 30 28 27 24 22 19 17 15 13 11 10 8 7 6 5 5 5 4 6 6 5 4 6 7 8 10 11 13 13 14 14 15 13
28 30 34 37 35 37 36 37 35 33 30 29 27 26 24 21 19 16 15 14 12 10 9 8 7 6 5 3 5 5 6 5 7 7 7 8 10 10 11 12 9 10 2
29 31 37 38 38 39 40 37 36 34 32 29 27 26 24 22 20 18 17 16 13 11 10 9 8 7 7 4 3 5 6 5 8 7 7 8 9 11 12 11 8 7 5
28 31 34 40 40 41 38 36 35 33 29 29 28 26 26 24 21 20 19 19 16 14 13 11 10 8 6 4 4 4 5 6 5 6 6 7 8 10 11 12 10 6 4
29 30 31 33 34 34 35 31 32 30 27 26 25 26 27 25 24 23 21 20 17 16 15 13 11 9 7 6 5 6 4 3 4 4 4 5 6 7 8 10 11 10 7
26 26 27 29 30 31 32 30 28 28 24 22 23 24 25 28 26 24 23 22 20 18 17 14 12 11 10 8 8 6 4 3 2 2 3 5 7 7 5 6 8 8 10
22 22 23 25 26 28 27 27 26 27 23 19 19 18 17 24 27 26 26 25 22 20 18 16 14 13 12 11 9 7 6 4 3 3 3 5 7 7 6 5 3 3 2
15 18 22 21 24 24 26 27 28 30 33 29 29 26 23 21 30 29 28 29 28 26 22 18 16 16 15 13 12 10 8 6 5 4 3 4 4 5 6 5 7 5 7
9 15 18 18 19 20 20 16 22 22 28 27 23 28 27 24 21 20 23 27 26 25 24 23 22 20 19 17 15 13 11 10 8 6 4 2 1 2 4 6 7 8 9
7 11 14 17 18 18 18 18 15 15 14 22 24 20 19 20 21 19 16 17 23 22 20 23 24 23 23 20 18 17 14 11 11 8 6 4 2 1 3 4 6 6 7
3 9 13 13 14 15 15 15 15 16 14 13 18 19 19 19 18 18 18 16 19 24 25 20 24 24 23 21 20 19 17 14 12 10 8 6 5 4 3 3 5 6 4
0 4 9 11 12 13 13 13 12 11 8 9 8 6 13 16 16 17 15 20 20 23 24 22 22 22 21 20 19 18 17 16 13 12 10 9 7 6 6 6 5 6 6
0 4 7 11 13 11 11 10 9 8 7 6 5 4 5 8 14 16 19 19 18 18 19 19 20 22 20 18 18 18 17 16 14 13 12 10 9 8 7 6 6 5 6
4 6 9 12 13 12 12 10 9 10 10 9 10 5 2 5 6 9 13 18 18 18 18 16 17 17 17 17 18 18 17 16 15 14 12 11 10 9 8 7 7 8 6
13 16 17 18 19 21 20 18 17 16 15 13 9 8 8 7 4 2 5 7 8 14 18 21 18 16 17 18 18 17 16 16 14 14 13 11 10 10 9 8 7 7 7
17 19 20 21 21 21 22 20 18 17 16 15 14 14 13 12 10 8 6 3 2 1 3 6 9 10 12 12 12 13 14 15 15 14 13 12 11 10 9 9 8 8 9
22 21 21 21 20 20 20 19 20 19 18 17 17 18 17 17 16 15 13 11 8 6 3 4 6 7 9 10 10 10 10 10 10 11 11 11 11 10 9 9 8 8 8
24 22 22 20 19 18 20 20 19 19 19 17 17 17 18 18 18 18 17 16 15 14 13 11 9 8 8 8 8 8 9 8 8 8 9 9 9 9 9 9 9 8 9
25 26 24 23 22 20 20 19 19 19 19 18 18 18 18 18 18 17 17 16 16 15 14 13 12 10 9 8 7 6 5 6 6 7 7 8 8 8 8 9 9 10 10
Wind_Direction
184 179 173 176 179 183 184 184 186 184 181 183 180 176 180 175 171 170 154 151 147 174 195 239 256 252 259 271 279 283 282 275 278 294 302 315 328 337 340 346 348 349 348
186 178 176 178 181 183 183 186 187 185 184 187 182 180 181 180 179 178 168 167 162 167 181 159 209 254 283 291 295 295 290 293 290 299 311 316 322 336 338 340 346 358 353
183 177 174 178 183 184 185 186 187 188 187 187 186 186 187 187 184 182 185 172 175 180 184 195 217 245 278 290 301 301 299 300 300 291 300 312 318 338 338 336 344 357 358
183 179 178 184 190 187 187 188 190 191 190 188 189 191 192 191 191 188 190 187 189 199 202 222 216 231 261 286 302 303 304 305 305 299 306 312 320 340 339 341 341 353 357
186 185 191 191 191 190 189 191 192 191 194 191 191 192 193 196 194 195 192 202 210 220 210 209 232 247 278 302 298 301 306 306 304 306 312 318 333 344 348 338 334 336 356
194 191 196 193 191 191 191 193 193 193 195 192 195 197 196 199 200 200 192 201 206 214 226 242 266 275 293 296 297 294 293 301 311 317 318 323 331 337 339 337 333 348 341
200 195 196 195 194 193 194 194 196 197 197 197 200 200 203 203 207 207 205 205 210 211 223 240 259 262 298 312 311 308 290 279 288 301 308 324 325 334 332 330 331 328 306
203 198 195 194 191 194 196 198 200 202 200 201 203 204 207 209 210 210 212 213 218 221 225 232 241 249 266 306 313 313 313 293 304 313 311 317 321 330 334 318 324 322 331
205 198 195 194 190 193 196 200 202 203 204 207 208 207 210 212 212 211 211 217 221 225 229 236 243 252 265 283 305 308 316 313 324 331 332 339 345 354 355 358 359 348 325
207 201 198 197 194 195 200 200 203 206 208 209 211 212 215 215 214 214 213 214 221 226 233 238 245 250 261 266 290 300 313 324 339 349 352 3 8 12 10 18 7 346 338
206 203 201 201 200 205 201 201 202 201 205 211 212 215 219 218 216 218 217 217 222 225 230 236 242 252 264 269 266 277 285 318 342 357 11 13 17 18 15 23 21 20 1
210 201 199 200 198 199 198 194 200 199 198 204 208 214 219 220 220 221 221 225 223 228 234 239 242 247 256 258 269 277 298 322 353 355 14 5 6 6 15 27 29 32 33
204 196 197 196 194 197 190 189 189 195 196 197 202 203 213 219 221 222 225 227 225 228 234 240 239 243 250 251 259 276 285 311 334 325 340 359 354 356 341 17 28 30 20
197 189 186 183 184 193 191 192 190 190 193 196 198 211 214 220 221 221 222 225 224 226 232 230 235 240 241 245 254 258 265 272 262 268 327 359 5 20 14 16 57 336 36
186 174 175 180 182 184 192 193 201 206 203 200 207 201 201 212 227 228 224 224 226 226 223 224 227 232 239 244 247 248 251 251 246 268 302 348 11 33 30 55 70 60 84
173 168 170 172 181 181 181 186 209 213 215 212 214 219 222 233 239 242 239 238 236 227 214 218 226 230 235 237 239 242 240 240 240 245 258 298 14 52 76 74 96 102 101
180 170 164 164 174 174 177 184 183 200 208 214 217 218 227 237 236 240 236 234 228 201 211 214 221 228 235 234 236 235 238 241 236 231 232 243 226 143 108 114 111 105 102
141 164 161 162 164 166 173 181 184 180 187 202 222 225 230 233 238 233 231 220 207 207 216 213 219 225 232 232 232 232 228 233 229 224 225 226 224 202 182 164 153 147 138
175 157 139 143 149 157 162 168 173 171 161 159 177 210 228 233 228 227 223 214 206 205 211 218 223 229 233 234 231 228 226 228 225 222 219 219 218 215 206 200 187 171 154
265 155 138 140 138 140 147 148 151 143 143 142 138 168 189 211 214 218 219 216 218 216 213 217 224 233 234 230 226 223 221 219 219 219 215 212 217 212 217 211 189 175 166
106 118 128 124 119 119 116 110 112 112 108 103 97 93 188 197 207 222 221 217 215 220 214 214 231 242 237 227 224 220 219 218 218 218 217 211 212 212 207 206 202 191 189
93 89 88 85 94 90 86 86 84 84 81 79 75 59 60 93 86 71 59 80 197 219 219 226 241 245 236 228 224 218 214 212 214 214 212 211 209 209 209 207 200 193 191
89 83 78 76 80 85 83 78 76 76 74 72 69 64 66 67 66 64 57 51 58 126 197 216 230 231 222 215 213 212 215 215 218 214 208 206 204 205 204 208 206 199 199
86 80 79 76 76 77 79 78 76 75 74 70 67 65 64 65 65 64 64 67 71 82 111 157 171 180 185 181 184 189 193 200 200 196 196 196 198 200 201 207 216 213 211
86 83 77 75 76 77 77 75 73 72 71 69 68 70 73 73 72 72 72 72 76 79 82 91 103 120 135 146 158 170 180 184 188 191 194 199 204 207 208 215 216 219 213
84 85 82 81 78 77 78 79 79 80 78 78 78 78 78 76 74 73 72 73 74 76 81 85 90 96 104 112 121 140 159 170 185 196 195 202 205 208 213 217 217 216 218